RH
51 50 49 48 50 52 52 50 46 42 38 38 40 43 43 43 42 41 41 41 40 40 40 40 39 38 36 35 34 34 34 32 31 31 31 30 28 26 26 26 27 26 24 21 18 18 19 23 28 32 31 29 27 26 24 23 23 24 23 22 23 24 23 16 14 14 13 12 11 11 10 10 10 10 11 11 12 15 20 26 29 31 31 31 31 31 30 25 22 22 22 19 18 17 17 17 18 19 23 26 26 24 22
49 49 49 49 50 50 50 47 45 42 39 38 40 42 44 44 44 42 41 40 39 39 39 40 40 39 36 34 33 33 33 31 31 30 30 30 28 26 26 26 27 27 26 22 19 18 17 21 25 30 31 30 28 25 23 21 22 23 23 21 22 22 21 15 13 12 12 12 11 10 10 10 11 11 12 13 13 15 19 25 29 30 31 31 31 31 31 27 25 24 23 20 18 18 16 17 17 19 23 27 26 24 21
49 50 50 50 49 49 47 45 43 42 40 39 40 41 43 43 43 42 41 39 39 40 40 41 41 40 36 33 31 31 32 31 30 30 30 30 28 26 25 26 27 27 27 23 20 17 15 17 21 26 30 31 30 26 23 22 21 22 22 23 23 23 21 16 13 13 12 12 11 11 11 11 12 13 15 15 15 16 19 24 28 30 30 30 31 31 31 30 28 26 25 20 19 19 18 17 16 17 20 24 25 23 21
50 50 50 49 48 46 44 43 42 42 41 41 41 41 42 43 43 43 42 40 40 41 41 42 42 41 37 32 29 29 30 30 30 30 30 30 28 26 25 26 26 27 27 24 21 17 15 14 16 20 24 27 28 28 25 22 22 22 22 22 23 23 20 15 14 13 13 12 11 12 13 13 15 16 17 17 16 16 18 23 27 30 30 31 31 31 32 31 30 29 26 22 20 20 20 17 16 16 17 20 22 23 24
51 51 51 49 47 46 44 42 42 43 42 42 42 43 44 45 45 45 43 43 43 43 43 42 42 41 37 31 29 28 29 29 29 29 30 30 29 27 26 26 26 27 27 26 23 20 17 15 15 16 18 20 24 27 24 22 22 21 22 21 22 21 18 16 15 14 14 13 13 13 15 16 20 22 20 19 18 17 17 21 26 29 31 31 32 32 33 33 32 30 28 25 23 23 24 20 18 16 16 17 19 20 22
53 53 52 51 48 47 45 43 43 43 43 43 44 45 46 47 47 47 45 45 45 45 44 42 42 41 37 32 29 28 29 30 30 30 30 30 30 28 27 26 27 27 27 27 25 23 22 19 18 17 16 18 22 25 25 24 23 21 20 21 20 18 15 16 16 14 14 14 14 15 17 20 24 25 23 22 20 18 17 20 24 28 31 32 33 33 34 34 33 32 30 28 27 26 27 26 22 19 17 17 17 18 19
54 53 53 52 50 48 46 45 44 44 44 44 44 46 48 47 47 47 45 46 45 45 43 41 41 40 37 33 30 29 29 30 31 31 31 31 31 30 28 27 27 27 27 27 27 26 26 25 22 18 16 16 17 19 24 24 24 22 20 21 17 13 13 16 16 16 14 15 17 18 20 22 24 25 24 22 21 19 17 20 24 28 31 33 34 34 35 34 33 32 30 29 28 27 25 29 28 25 21 19 17 17 17
54 53 53 52 51 49 47 46 46 46 47 47 47 47 48 46 45 45 44 44 43 42 41 40 40 40 38 34 31 30 30 31 32 32 32 32 32 31 30 29 28 28 28 28 28 28 27 26 25 22 16 16 16 17 19 22 24 24 22 19 15 13 15 18 18 17 15 16 18 22 25 23 23 23 24 23 22 21 20 21 24 27 30 33 34 34 34 33 32 31 30 28 28 27 23 27 30 29 27 22 19 17 17
53 53 53 52 51 49 48 48 48 49 51 51 50 49 48 46 45 45 44 44 43 42 41 39 39 39 38 35 33 31 31 32 33 33 33 33 33 33 32 30 29 29 29 29 29 29 29 26 26 25 21 18 16 16 16 23 25 25 24 19 16 17 22 23 22 19 16 18 22 25 26 26 26 25 26 26 25 24 23 23 24 26 28 30 31 31 31 31 30 30 29 28 27 26 24 25 28 31 30 26 22 19 18
55 56 56 55 53 51 50 50 51 52 53 53 53 52 50 48 47 47 47 47 45 43 41 40 39 39 38 35 33 32 32 32 33 33 33 34 34 34 33 32 31 31 31 30 30 30 30 29 29 28 24 20 18 17 17 22 24 25 27 19 15 16 23 23 22 20 18 20 23 25 24 27 28 28 27 27 28 28 25 25 25 26 26 28 28 28 28 29 29 29 29 28 27 27 26 24 27 31 32 30 25 22 20
61 61 61 59 57 55 54 53 53 54 54 55 54 54 52 50 50 50 51 51 49 46 44 42 41 40 39 37 35 33 32 33 33 34 34 34 35 35 35 34 32 32 32 32 31 31 31 31 30 29 26 22 20 18 18 20 22 24 27 21 16 14 14 17 19 20 19 21 24 25 24 27 28 29 29 29 30 31 29 27 27 28 30 31 31 30 30 31 30 30 29 28 28 28 27 24 25 28 31 29 26 23 22
64 64 63 62 60 58 56 56 55 55 54 55 55 55 53 55 55 55 54 54 53 50 48 46 45 43 42 40 37 35 34 34 34 35 35 34 35 36 36 35 34 33 33 33 33 32 32 32 32 31 30 26 23 20 19 20 21 24 26 21 18 16 15 16 21 24 22 22 24 28 28 28 29 29 30 30 31 32 32 29 28 30 35 37 37 35 32 33 32 32 31 29 29 28 28 26 25 26 27 27 25 23 23
64 63 63 62 61 60 58 56 56 55 54 54 54 54 54 57 59 59 57 56 55 54 53 52 50 48 45 42 39 37 35 35 36 36 36 36 36 36 37 36 35 34 34 34 34 34 33 33 33 33 33 30 27 24 21 21 21 22 24 20 19 18 18 20 25 28 25 22 24 28 29 29 29 30 31 31 32 32 33 32 30 31 35 39 40 39 35 33 33 33 32 31 30 29 29 28 28 27 27 27 26 25 24
63 62 61 60 59 59 58 57 55 54 53 53 53 53 53 56 58 59 58 57 56 56 57 58 56 53 49 45 41 39 37 37 37 38 38 37 37 37 37 37 36 36 35 35 35 35 35 35 35 35 35 33 31 28 24 23 22 22 21 20 19 19 19 21 26 29 27 23 24 26 29 29 29 30 30 31 32 33 33 32 31 31 32 36 38 39 36 34 33 32 32 32 31 31 30 30 30 30 29 29 28 28 27
60 59 59 57 57 56 56 56 55 54 53 52 51 50 52 54 56 59 59 58 58 59 60 62 61 58 52 47 44 42 40 39 38 39 39 39 38 38 37 37 37 36 35 35 35 35 36 36 36 36 36 35 34 32 28 26 24 22 22 21 20 20 20 21 25 30 31 27 25 25 28 28 28 28 29 30 31 32 33 31 31 31 31 33 35 35 34 33 32 31 31 31 31 31 31 31 31 31 31 30 30 29 29
56 55 55 54 54 53 54 54 54 54 54 52 51 49 50 53 56 59 60 59 60 62 64 64 63 60 56 52 49 46 44 42 40 40 40 40 39 39 38 37 37 37 36 35 35 35 36 36 37 37 37 37 36 35 33 30 27 24 22 22 22 21 21 21 25 30 34 32 29 28 28 26 26 26 27 28 30 31 31 30 29 29 31 33 34 34 33 32 31 30 30 31 31 31 31 31 31 31 31 31 30 30 30
54 53 52 51 51 50 50 51 52 53 54 53 52 52 51 54 56 58 58 56 58 61 64 64 63 61 59 57 54 51 48 46 44 42 41 40 40 39 38 38 37 37 36 36 35 35 35 36 36 37 37 38 38 37 36 34 31 27 24 23 23 23 23 22 24 27 33 34 34 32 30 28 28 28 28 28 29 29 29 28 28 28 29 32 34 35 33 32 31 30 30 30 30 30 30 31 31 32 32 31 31 31 31
56 54 52 50 49 48 48 48 49 51 52 53 53 54 55 56 57 57 56 53 54 56 60 61 61 61 61 61 59 56 52 50 47 45 43 42 40 39 38 38 37 37 37 36 36 35 35 35 36 36 36 37 38 38 38 37 34 30 27 25 25 24 24 24 24 25 30 34 35 35 33 32 32 32 31 30 29 28 27 26 26 27 27 29 32 35 35 33 32 31 30 30 30 30 30 31 31 32 32 33 33 32 32
59 57 54 52 50 48 47 46 46 48 50 51 53 55 58 59 59 57 55 51 50 51 54 57 59 61 61 62 61 58 56 53 51 49 47 45 43 41 39 39 39 38 38 37 37 36 36 35 35 36 36 37 37 38 38 38 36 34 31 28 26 25 25 25 24 25 27 32 35 36 35 34 34 35 34 33 30 27 25 25 26 27 27 27 29 33 37 37 35 33 31 31 31 31 31 31 32 33 34 35 35 34 34
60 59 56 54 52 50 48 47 46 46 46 49 53 57 61 62 60 58 55 52 49 47 48 51 55 58 60 60 60 59 58 56 54 52 51 49 47 44 42 42 42 43 43 40 38 37 37 36 36 36 36 36 37 38 37 38 37 36 35 32 29 27 26 26 25 25 25 30 34 37 37 36 36 35 35 34 31 29 27 27 27 28 29 27 28 30 35 38 39 38 34 33 32 32 32 32 33 34 36 37 37 37 37
59 59 57 55 53 52 50 49 47 46 45 48 53 57 60 61 59 57 55 53 50 47 45 46 50 55 58 59 59 58 58 57 55 54 53 52 51 49 47 47 47 47 45 43 41 38 38 38 37 36 36 37 37 37 37 37 37 37 37 35 32 29 27 27 26 26 25 27 32 36 37 38 38 37 37 37 36 34 32 31 30 30 31 30 29 29 31 36 39 40 38 36 34 34 33 33 34 35 37 39 40 40 39
57 58 57 56 55 54 53 52 51 50 49 52 54 56 57 57 56 55 54 54 54 51 47 45 47 52 57 59 59 59 59 58 57 55 54 54 53 53 51 51 50 48 45 44 42 41 40 39 39 38 38 37 37 37 38 37 37 37 38 37 36 33 30 29 28 27 26 26 29 33 37 37 38 39 39 40 40 39 38 36 34 33 33 33 32 31 31 34 37 40 40 38 36 35 34 34 34 36 38 42 43 43 42
56 57 57 57 57 56 55 55 54 54 55 56 56 56 56 55 55 55 54 57 59 57 53 49 48 50 55 59 62 62 61 60 59 57 56 55 55 54 53 53 51 49 48 47 45 43 42 41 41 40 39 39 38 38 38 38 37 37 38 39 38 37 35 32 30 28 28 26 27 30 35 36 37 38 39 40 41 42 41 40 38 37 37 36 36 35 34 35 37 38 39 39 38 37 36 35 36 37 38 42 44 44 43
56 56 58 58 58 57 56 57 57 58 59 59 58 57 56 56 56 57 57 59 60 60 57 52 49 49 54 60 64 65 64 62 60 59 58 57 58 58 57 56 55 54 54 52 50 49 47 45 44 43 42 41 40 39 39 39 38 38 38 39 40 40 39 36 33 31 29 28 28 29 33 36 37 37 37 38 39 41 42 41 40 40 40 40 40 40 39 39 39 39 39 39 39 38 38 37 37 38 39 41 43 44 44
57 57 58 58 58 58 57 58 59 59 60 60 60 59 58 56 56 57 59 59 59 58 56 52 50 50 54 61 65 67 67 65 62 60 59 60 60 61 62 62 63 62 61 59 57 55 54 52 51 49 47 45 44 42 41 40 39 39 39 39 40 41 42 40 38 35 33 31 29 29 31 35 37 37 36 36 37 39 41 40 40 40 43 44 45 45 44 43 42 42 42 41 41 40 40 40 40 40 40 42 43 43 44
57 57 57 57 57 57 56 57 58 59 60 60 61 61 60 58 57 57 58 57 56 55 53 51 50 51 55 61 66 69 69 67 64 62 61 62 63 64 65 66 66 67 67 65 62 60 58 58 57 55 53 51 49 46 44 43 42 41 40 40 41 42 43 43 43 41 38 35 33 31 31 34 37 39 39 37 37 38 39 39 38 38 40 43 45 46 47 46 46 46 47 47 46 44 43 42 42 42 42 42 43 43 45
55 56 55 54 54 54 55 56 56 57 58 59 60 61 62 61 59 58 56 55 54 53 52 51 51 52 55 61 66 69 69 67 65 63 63 64 65 66 67 67 68 68 69 69 67 65 62 60 59 58 57 55 53 51 48 46 44 43 42 42 42 42 43 45 45 45 43 40 37 35 33 35 38 41 41 41 40 39 39 39 38 37 37 38 41 44 46 46 47 47 48 50 50 49 46 44 43 43 42 43 43 43 44
52 52 52 51 51 52 53 55 56 57 56 57 58 59 61 61 60 58 56 55 53 53 52 51 51 52 55 62 67 69 69 65 63 63 66 67 67 67 67 67 68 69 69 70 70 69 67 65 62 60 59 57 55 54 52 50 48 46 45 44 44 43 44 45 46 47 47 46 43 40 37 36 38 42 44 44 44 43 42 41 40 39 38 37 37 39 42 43 44 44 43 46 49 50 48 45 43 41 41 41 41 42 42
48 47 48 49 50 51 52 54 56 57 57 57 58 58 57 58 59 58 56 55 54 53 53 51 50 50 54 61 67 68 66 61 61 64 69 71 70 69 66 66 65 66 67 67 68 69 70 68 66 63 60 58 57 55 54 53 51 49 47 46 46 45 45 45 46 47 48 49 48 46 43 40 40 41 45 47 47 47 46 45 44 43 41 39 37 37 38 39 39 39 39 42 45 47 47 45 42 40 39 39 40 40 39
43 43 45 47 49 50 52 53 54 55 56 56 57 56 54 54 56 58 58 56 53 52 54 51 49 50 53 59 62 63 60 59 62 67 72 73 73 72 69 66 63 62 61 62 63 65 68 69 69 67 63 61 59 58 57 55 54 52 50 49 48 47 47 46 46 47 48 49 49 49 48 45 43 41 43 46 49 50 49 48 48 47 45 42 40 38 38 37 37 37 37 39 42 44 45 43 41 39 39 40 40 40 39
41 41 41 44 46 48 50 51 51 52 53 55 55 55 53 53 54 56 59 57 54 53 55 52 51 51 54 57 59 60 59 62 66 71 73 74 74 73 71 68 64 60 56 56 57 60 63 66 68 69 68 66 64 63 61 59 58 56 54 52 51 50 49 49 48 48 48 49 50 50 51 49 47 44 42 45 48 50 51 51 50 49 47 45 43 41 40 39 38 38 38 38 40 42 44 42 40 39 39 40 41 42 42
41 41 40 41 43 46 47 49 49 50 50 52 53 54 53 53 54 56 60 59 57 56 57 56 55 54 56 57 60 62 62 65 69 71 72 74 73 73 72 69 64 58 53 53 53 55 58 62 66 69 71 71 70 70 68 66 64 61 59 56 54 53 52 52 51 50 50 50 50 51 52 52 50 48 45 44 45 47 49 51 51 51 49 47 45 43 43 43 43 42 41 40 40 41 42 42 41 39 39 41 42 43 43
40 41 41 42 43 44 46 48 49 49 48 49 50 51 52 53 55 56 59 59 59 58 59 59 58 58 58 57 60 63 65 67 69 70 71 71 72 72 72 69 63 57 52 51 52 53 54 58 62 67 70 72 73 74 73 72 70 67 64 61 59 57 56 55 54 53 52 52 52 52 52 53 53 53 51 47 46 46 47 49 50 51 51 48 47 48 50 51 50 48 46 44 43 43 43 42 42 41 41 42 43 45 45
37 41 42 42 43 44 46 48 49 49 48 48 49 50 52 53 54 56 57 57 58 59 59 60 61 61 60 58 58 58 60 63 65 67 67 68 69 69 70 68 62 55 51 51 51 52 53 56 59 63 67 71 73 74 75 74 72 70 68 66 64 62 61 59 57 56 54 54 53 53 53 54 54 55 55 53 50 48 47 47 48 49 50 50 50 52 56 58 58 56 52 50 48 47 46 45 45 45 45 46 47 48 48
32 37 41 42 43 44 45 47 49 49 49 49 49 50 51 52 53 53 54 54 55 56 58 59 61 61 62 61 59 56 54 56 57 59 60 62 64 65 66 65 59 52 48 49 50 52 54 56 58 61 64 68 71 74 74 74 72 69 67 65 64 63 63 63 62 60 57 55 53 53 53 53 54 55 56 56 54 53 50 48 48 48 48 48 48 49 54 60 63 64 61 57 54 51 50 51 51 51 50 51 52 52 52
28 32 36 40 43 44 45 46 47 48 48 49 49 50 51 52 52 52 52 51 51 51 53 55 57 59 60 60 60 58 55 53 51 51 52 55 58 61 61 59 54 48 46 48 50 52 55 57 59 60 62 66 70 72 74 73 71 68 65 63 62 62 63 66 67 66 62 58 55 53 52 52 52 53 54 55 56 56 55 53 51 50 49 48 47 48 49 55 62 67 68 66 63 60 58 58 57 56 55 55 55 55 55
25 28 31 37 41 43 44 45 46 47 48 48 48 49 50 51 52 52 51 50 49 49 49 51 53 55 57 57 57 56 57 54 51 49 48 49 51 53 54 53 50 47 46 49 52 54 57 59 60 61 61 62 65 68 71 72 70 67 64 62 61 62 64 69 72 72 69 64 60 56 53 52 51 51 52 54 55 56 57 56 55 53 51 49 49 49 49 51 55 60 65 69 70 70 69 68 65 62 59 58 57 57 57
24 25 28 32 38 42 44 45 45 46 46 47 47 47 48 49 50 50 51 50 49 48 48 48 49 51 53 55 54 53 52 51 51 51 50 49 48 48 48 47 47 47 48 50 52 55 57 59 60 60 59 59 59 61 65 68 68 67 63 61 60 61 62 68 72 74 72 69 65 62 58 55 52 51 51 52 54 55 57 57 58 57 55 52 50 49 48 48 50 52 57 62 67 71 73 74 72 68 63 60 59 58 58
22 23 25 28 32 37 42 43 45 45 46 47 47 47 47 47 48 49 50 50 50 49 48 48 48 48 51 53 53 52 50 50 50 51 52 52 50 48 46 45 46 47 49 50 51 52 54 55 57 58 58 56 55 55 56 60 63 63 62 59 58 57 58 61 65 68 70 70 68 66 63 59 56 53 51 51 52 53 55 56 57 58 58 56 54 51 49 48 47 48 49 53 57 62 68 71 72 71 67 64 62 60 59
20 21 22 24 26 30 35 39 42 45 46 46 47 47 47 48 48 48 49 50 51 51 50 50 49 49 51 52 53 52 51 50 50 50 51 52 52 50 47 47 48 50 51 51 51 51 52 53 54 54 55 54 53 52 52 53 55 57 57 56 54 52 52 53 56 59 63 65 66 66 65 64 61 57 54 53 52 53 54 54 56 57 58 58 57 56 53 51 49 48 47 48 50 53 58 63 67 69 69 68 67 65 63
17 18 19 20 22 24 28 32 36 41 44 46 47 47 48 49 49 49 49 50 52 53 52 52 52 52 52 53 54 55 55 54 52 51 51 52 53 52 50 50 51 52 53 52 52 53 53 52 52 51 51 51 50 50 50 50 50 51 51 51 50 49 48 48 49 50 53 56 59 62 63 63 63 61 59 56 54 54 54 54 55 56 57 58 58 58 57 56 54 52 50 49 48 49 50 54 59 63 66 68 70 71 69
13 14 16 17 18 20 22 24 28 33 38 42 44 46 47 49 49 50 50 51 52 53 53 54 54 54 54 53 55 57 59 58 56 54 53 54 54 53 52 52 52 52 51 50 50 50 52 52 52 52 52 51 50 49 49 49 49 49 48 48 48 48 47 47 47 47 46 48 50 53 56 58 60 61 61 59 57 56 56 57 58 58 58 58 58 58 59 58 58 56 55 53 50 48 47 48 51 55 61 66 71 74 74
11 12 12 13 15 16 17 19 21 24 28 33 38 41 43 46 47 49 50 51 51 52 53 53 54 55 55 54 56 58 62 61 60 58 57 56 56 55 54 53 52 52 51 49 48 47 49 53 57 59 60 58 54 51 49 49 49 49 49 49 49 49 49 49 48 47 46 46 47 49 51 54 56 59 61 61 61 60 59 60 62 62 62 60 59 58 58 59 59 59 58 56 55 53 51 49 49 52 59 66 72 75 77
9 9 10 11 11 12 14 15 16 18 20 23 27 32 36 40 43 45 47 48 49 50 51 52 53 54 55 55 57 59 63 63 63 62 61 60 59 58 57 55 54 53 52 50 49 48 51 58 65 70 71 67 61 55 50 49 49 49 50 50 50 50 50 50 49 50 51 52 53 54 55 55 56 58 60 63 65 66 65 64 65 66 67 66 63 60 59 58 58 58 59 59 60 60 58 54 52 54 60 66 72 76 78
9 9 9 9 10 10 11 12 13 14 14 16 18 22 26 30 34 37 40 42 44 46 47 50 52 53 54 55 56 59 63 64 65 64 63 62 61 60 59 57 56 54 52 50 49 51 56 66 75 80 80 73 66 59 53 50 50 50 51 51 51 51 51 51 52 54 57 61 62 62 61 60 59 60 62 67 71 74 74 72 70 70 71 71 69 66 63 60 59 58 57 58 61 63 62 58 56 56 60 65 70 74 77
10 9 9 9 9 9 9 10 10 11 13 13 14 15 16 19 23 27 31 34 37 39 41 44 47 50 52 53 55 57 59 62 64 64 64 63 62 61 60 58 56 53 51 49 50 54 62 72 80 84 82 75 68 61 55 53 51 51 51 50 50 50 50 51 53 56 60 64 66 65 64 63 63 64 67 73 78 81 82 79 76 74 73 74 74 73 70 66 63 60 57 56 57 58 59 58 58 57 59 63 66 70 74
10 10 10 9 9 9 9 9 9 9 11 11 12 13 12 14 16 18 20 24 28 32 35 37 40 43 45 48 50 53 55 57 59 60 61 60 60 59 58 55 54 52 51 50 52 57 65 76 81 83 80 74 67 62 58 55 52 50 48 47 47 47 48 50 53 56 59 61 62 63 64 64 66 69 73 77 81 84 84 83 80 78 76 76 77 77 76 73 69 65 60 55 53 51 51 52 53 54 56 58 61 64 67
10 10 10 10 10 10 10 9 9 9 10 11 13 13 10 11 12 13 14 15 19 23 27 29 31 34 37 39 42 45 48 50 51 53 53 54 54 54 53 51 49 48 49 49 51 55 64 73 79 81 78 73 67 62 58 55 51 48 45 44 44 45 48 50 53 54 55 56 58 59 62 63 65 68 71 76 79 82 84 83 81 80 78 78 78 79 79 78 77 74 69 63 58 54 51 50 51 52 54 55 56 57 59
10 10 10 11 11 11 13 11 9 9 9 10 12 13 12 11 10 11 10 11 12 15 18 20 23 25 29 32 34 37 40 43 44 45 45 47 48 48 48 47 45 44 44 44 46 49 55 63 70 75 76 72 66 61 56 52 48 45 42 42 43 46 48 51 52 53 54 55 56 57 58 58 60 63 68 72 75 78 80 81 82 82 82 81 81 81 81 82 81 80 78 75 72 68 64 61 59 59 59 58 57 56 56
11 11 10 11 10 10 12 10 9 8 9 9 11 14 15 12 10 9 9 9 10 11 13 15 16 18 21 25 28 31 35 36 38 39 41 43 44 45 45 45 43 42 40 40 41 42 44 48 54 60 65 65 62 57 53 49 45 43 42 44 46 48 50 51 52 54 55 56 56 55 53 52 54 58 63 69 72 74 75 78 81 84 86 85 84 83 82 82 81 81 80 79 79 77 76 72 70 67 65 64 62 61 60
12 12 11 11 10 9 9 9 8 8 8 8 10 12 12 10 9 10 10 12 13 13 13 15 16 17 17 19 23 27 30 31 32 34 37 39 41 42 42 42 41 41 41 40 39 39 38 39 41 44 47 51 51 50 48 46 45 47 50 51 52 53 53 53 54 56 58 58 57 53 50 47 48 52 59 67 72 74 74 76 80 84 87 86 84 82 81 80 80 80 79 80 81 82 81 80 78 74 71 69 68 68 67
12 11 11 10 10 10 9 9 9 9 9 9 11 12 12 12 12 12 14 17 18 17 15 16 18 19 17 17 18 21 23 25 28 30 32 34 36 37 39 39 38 38 37 38 38 38 38 36 35 34 35 38 40 41 41 43 47 52 56 56 56 56 55 55 56 57 59 58 56 52 47 43 43 48 56 67 73 76 76 78 80 83 85 85 84 83 81 79 78 77 78 81 83 83 83 81 79 77 74 73 73 74 73
13 12 11 11 10 10 10 10 9 9 9 11 13 15 15 17 17 16 16 19 19 19 18 17 18 19 20 19 18 17 17 20 22 24 26 28 30 32 33 35 35 34 34 35 36 36 37 37 37 36 36 37 38 39 38 40 44 49 54 56 56 56 55 55 55 56 57 57 53 48 42 39 39 45 55 68 77 81 81 82 82 83 83 83 84 84 82 79 75 74 74 77 81 84 84 81 78 76 75 77 79 80 81
14 13 12 11 11 10 10 10 10 10 10 12 14 15 16 16 17 17 18 18 18 18 19 17 18 20 21 22 22 20 21 19 19 21 22 24 26 27 29 30 30 30 31 33 33 33 32 34 36 38 39 38 39 40 40 41 42 45 48 52 54 55 54 54 54 54 54 52 48 42 36 34 37 44 56 72 81 86 88 88 87 85 84 84 85 84 82 79 75 73 72 74 75 78 81 83 82 80 80 82 84 86 88
15 14 13 13 12 11 11 11 10 10 11 12 13 14 17 16 17 17 18 18 19 20 21 19 19 20 20 22 23 23 23 22 22 21 20 23 24 25 26 26 26 27 29 30 30 30 30 31 32 34 34 36 37 39 40 42 43 44 45 47 50 52 54 53 52 50 48 44 40 36 32 33 37 46 58 70 78 83 86 87 88 87 86 86 85 84 81 78 74 72 72 73 72 72 72 79 84 87 87 88 89 89 89
16 15 15 14 13 12 12 11 11 11 13 13 15 16 19 19 19 19 18 21 22 23 25 23 23 22 21 22 22 23 23 23 23 23 21 23 24 25 23 25 25 24 24 24 25 25 27 29 31 32 31 35 37 38 39 39 40 41 42 44 46 48 49 49 48 46 43 39 36 34 33 35 40 48 58 65 71 75 78 80 82 84 86 85 84 81 78 72 68 66 67 69 69 68 68 74 82 87 89 88 88 88 87
17 16 16 15 15 14 14 13 13 13 13 13 14 16 18 19 19 19 19 20 21 22 23 22 23 24 23 22 23 24 24 23 24 24 22 23 23 24 25 25 25 24 23 22 22 23 25 27 29 29 28 31 34 36 37 37 38 39 39 40 41 41 42 43 43 42 40 39 37 37 37 38 43 49 56 62 66 70 71 71 72 73 74 75 74 72 68 62 58 56 59 64 66 67 68 74 80 85 88 88 87 87 87
19 18 18 17 17 16 16 16 16 15 15 15 14 14 14 15 16 16 16 17 18 18 17 19 21 24 24 25 24 23 23 23 23 23 23 24 25 26 26 25 25 25 25 25 25 24 25 27 27 27 26 27 29 31 33 34 35 35 36 38 38 37 38 38 38 38 38 39 39 40 41 42 45 48 52 57 61 64 65 64 63 62 61 60 59 58 55 51 47 46 48 56 62 66 70 76 81 84 86 86 85 85 83
21 20 20 19 19 19 19 18 18 18 18 18 18 18 17 17 17 18 18 17 17 18 19 20 21 23 24 24 25 25 25 23 23 22 23 25 26 27 27 27 28 28 26 25 25 25 25 25 25 25 25 25 26 27 28 29 30 32 34 35 36 37 37 37 37 37 38 38 39 41 43 44 45 47 50 53 56 58 59 58 56 54 51 49 47 45 43 41 40 39 40 47 55 64 71 77 80 82 82 81 80 79 78
24 23 23 22 22 21 21 21 20 20 20 20 20 21 21 21 22 23 23 23 24 25 26 26 24 22 22 25 27 27 26 26 26 25 24 25 26 26 26 27 27 28 28 27 26 26 25 25 25 25 25 25 25 25 26 27 28 29 30 31 33 34 36 37 37 37 38 39 39 40 42 43 45 46 48 50 52 52 53 52 50 47 43 40 38 37 36 37 38 39 40 44 50 59 68 74 77 78 77 76 76 75 74
25 25 24 24 23 23 22 22 22 22 22 22 22 23 24 25 26 28 29 29 29 30 29 29 27 25 23 26 28 27 27 26 26 26 26 26 26 26 25 26 26 26 27 26 26 26 26 26 26 26 26 26 26 25 24 25 26 26 27 28 30 32 34 36 37 37 37 38 38 39 40 42 43 44 45 46 47 47 47 46 44 42 39 37 35 34 35 37 40 44 46 48 51 55 61 66 69 69 69 69 68 67 68